contact:dominique.lefevre@mio.osupytheas.fr, maurice.libes@osupytheas.fr, didier.mallarino@osupytheas.fr
Project:EMSO http://www.emso-fr.org/EMSO-France
Depth: 2436.0 m
Title:EMSO Ligure Ouest : Data MII capteur MICROCAT
DateTime_Computer,Latitude,Longitude,Temperature,Conductivity,Pressure,DateTime_Instrument
DateTime_Computer,Latitude,Longitude,degC,S m-1,dbar,DateTime_Instrument
2020-08-19T00:02:16Z,42.805,6.029,13.2977,4.59976,2470.063,2020-8-19T02:03:06Z
2020-08-19T00:05:19Z,42.805,6.029,13.2976,4.59976,2470.1,2020-8-19T02:06:09Z
2020-08-19T00:08:22Z,42.805,6.029,13.2975,4.59976,2470.063,2020-8-19T02:09:12Z
2020-08-19T00:11:26Z,42.805,6.029,13.2976,4.59977,2470.03,2020-8-19T02:12:15Z
2020-08-19T00:14:29Z,42.805,6.029,13.2973,4.59976,2470.053,2020-8-19T02:15:19Z
2020-08-19T00:17:32Z,42.805,6.029,13.2977,4.59976,2470.053,2020-8-19T02:18:22Z
2020-08-19T00:20:36Z,42.805,6.029,13.2979,4.59976,2470.04,2020-8-19T02:21:25Z
2020-08-19T00:23:39Z,42.805,6.029,13.2974,4.59976,2470.04,2020-8-19T02:24:28Z
2020-08-19T00:26:42Z,42.805,6.029,13.2979,4.59976,2470.053,2020-8-19T02:27:32Z
2020-08-19T00:29:45Z,42.805,6.029,13.2976,4.59976,2470.017,2020-8-19T02:30:35Z
2020-08-19T00:32:48Z,42.805,6.029,13.2975,4.59977,2470.077,2020-8-19T02:33:38Z
2020-08-19T00:35:52Z,42.805,6.029,13.2977,4.59978,2470.017,2020-8-19T02:36:41Z
2020-08-19T00:38:55Z,42.805,6.029,13.2977,4.59976,2470.04,2020-8-19T02:39:45Z
2020-08-19T00:41:58Z,42.805,6.029,13.2976,4.59977,2470.017,2020-8-19T02:42:48Z
2020-08-19T00:45:02Z,42.805,6.029,13.2977,4.59976,2470.077,2020-8-19T02:45:51Z
2020-08-19T00:48:05Z,42.805,6.029,13.2976,4.59976,2470.026,2020-8-19T02:48:54Z
2020-08-19T00:51:08Z,42.805,6.029,13.2976,4.59978,2470.053,2020-8-19T02:51:58Z
2020-08-19T00:54:11Z,42.805,6.029,13.2970,4.59976,2470.063,2020-8-19T02:55:01Z
2020-08-19T00:57:15Z,42.805,6.029,13.2976,4.59977,2470.04,2020-8-19T02:58:04Z
2020-08-19T01:00:18Z,42.805,6.029,13.2974,4.59976,2470.04,2020-8-19T03:01:07Z
2020-08-19T01:03:21Z,42.805,6.029,13.2979,4.59976,2470.04,2020-8-19T03:04:11Z
2020-08-19T01:06:24Z,42.805,6.029,13.2980,4.59976,2470.04,2020-8-19T03:07:14Z
2020-08-19T01:09:28Z,42.805,6.029,13.2976,4.59978,2470.04,2020-8-19T03:10:17Z
2020-08-19T01:12:31Z,42.805,6.029,13.2976,4.59977,2470.007,2020-8-19T03:13:20Z
2020-08-19T01:15:34Z,42.805,6.029,13.2977,4.59977,2469.97,2020-8-19T03:16:24Z
2020-08-19T01:18:37Z,42.805,6.029,13.2971,4.59976,2470.063,2020-8-19T03:19:27Z
2020-08-19T01:21:41Z,42.805,6.029,13.2980,4.59976,2470.017,2020-8-19T03:22:30Z
2020-08-19T01:24:44Z,42.805,6.029,13.2978,4.59976,2470.007,2020-8-19T03:25:33Z
2020-08-19T01:27:47Z,42.805,6.029,13.2976,4.59977,2470.017,2020-8-19T03:28:37Z
2020-08-19T01:30:50Z,42.805,6.029,13.2974,4.59977,2470.04,2020-8-19T03:31:40Z
2020-08-19T01:33:54Z,42.805,6.029,13.2975,4.59976,2470.03,2020-8-19T03:34:43Z
2020-08-19T01:36:57Z,42.805,6.029,13.2978,4.59977,2470.017,2020-8-19T03:37:46Z
2020-08-19T01:40:00Z,42.805,6.029,13.2976,4.59976,2470.017,2020-8-19T03:40:50Z
2020-08-19T01:43:03Z,42.805,6.029,13.2977,4.59976,2469.993,2020-8-19T03:43:53Z
2020-08-19T01:46:06Z,42.805,6.029,13.2975,4.59976,2470.017,2020-8-19T03:46:56Z
2020-08-19T01:49:10Z,42.805,6.029,13.2974,4.59976,2470.03,2020-8-19T03:49:59Z
2020-08-19T01:52:13Z,42.805,6.029,13.2977,4.59976,2470.007,2020-8-19T03:53:02Z
2020-08-19T01:55:16Z,42.805,6.029,13.2977,4.59978,2469.993,2020-8-19T03:56:06Z
2020-08-19T01:58:19Z,42.805,6.029,13.2974,4.59977,2469.993,2020-8-19T03:59:09Z
2020-08-19T02:01:23Z,42.805,6.029,13.2975,4.59977,2469.993,2020-8-19T04:02:12Z
2020-08-19T02:04:26Z,42.805,6.029,13.2977,4.59978,2470.007,2020-8-19T04:05:15Z
2020-08-19T02:07:29Z,42.805,6.029,13.2974,4.59978,2469.993,2020-8-19T04:08:19Z
2020-08-19T02:10:32Z,42.805,6.029,13.2978,4.59978,2469.993,2020-8-19T04:11:22Z
2020-08-19T02:13:35Z,42.805,6.029,13.2976,4.59976,2469.993,2020-8-19T04:14:25Z
2020-08-19T02:16:39Z,42.805,6.029,13.2972,4.59977,2469.993,2020-8-19T04:17:28Z
2020-08-19T02:19:42Z,42.805,6.029,13.2976,4.59976,2469.993,2020-8-19T04:20:32Z
2020-08-19T02:22:45Z,42.805,6.029,13.2976,4.59976,2469.993,2020-8-19T04:23:35Z
2020-08-19T02:25:49Z,42.805,6.029,13.2974,4.59976,2469.993,2020-8-19T04:26:38Z
2020-08-19T02:28:52Z,42.805,6.029,13.2975,4.59976,2470.03,2020-8-19T04:29:42Z
2020-08-19T02:31:55Z,42.805,6.029,13.2975,4.59976,2469.979,2020-8-19T04:32:45Z
2020-08-19T02:34:59Z,42.805,6.029,13.2974,4.59978,2469.993,2020-8-19T04:35:48Z
2020-08-19T02:38:02Z,42.805,6.029,13.2974,4.59978,2469.993,2020-8-19T04:38:52Z
2020-08-19T02:41:05Z,42.805,6.029,13.2977,4.59976,2470.03,2020-8-19T04:41:55Z
2020-08-19T02:44:09Z,42.805,6.029,13.2977,4.59976,2470.007,2020-8-19T04:44:58Z
2020-08-19T02:47:12Z,42.805,6.029,13.2974,4.59977,2470.017,2020-8-19T04:48:01Z
2020-08-19T02:50:15Z,42.805,6.029,13.2977,4.59976,2469.984,2020-8-19T04:51:05Z
2020-08-19T02:53:18Z,42.805,6.029,13.2975,4.59977,2470.03,2020-8-19T04:54:08Z
2020-08-19T02:56:21Z,42.805,6.029,13.2976,4.59976,2470.017,2020-8-19T04:57:11Z
2020-08-19T02:59:25Z,42.805,6.029,13.2975,4.59976,2470.007,2020-8-19T05:00:14Z
2020-08-19T03:02:28Z,42.805,6.029,13.2975,4.59976,2470.03,2020-8-19T05:03:17Z
2020-08-19T03:05:31Z,42.805,6.029,13.2974,4.59976,2469.993,2020-8-19T05:06:21Z
2020-08-19T03:08:34Z,42.805,6.029,13.2975,4.59976,2469.993,2020-8-19T05:09:24Z
2020-08-19T03:11:38Z,42.805,6.029,13.2972,4.59976,2470.017,2020-8-19T05:12:27Z
2020-08-19T03:14:41Z,42.805,6.029,13.2976,4.59976,2469.993,2020-8-19T05:15:31Z
2020-08-19T03:17:44Z,42.805,6.029,13.2979,4.59976,2470.017,2020-8-19T05:18:34Z
2020-08-19T03:20:48Z,42.805,6.029,13.2973,4.59975,2470.017,2020-8-19T05:21:37Z
2020-08-19T03:23:51Z,42.805,6.029,13.2976,4.59975,2470.053,2020-8-19T05:24:41Z
2020-08-19T03:26:54Z,42.805,6.029,13.2975,4.59975,2470.03,2020-8-19T05:27:44Z
2020-08-19T03:29:58Z,42.805,6.029,13.2972,4.59976,2470.017,2020-8-19T05:30:47Z
2020-08-19T03:33:01Z,42.805,6.029,13.2971,4.59976,2470.017,2020-8-19T05:33:50Z
2020-08-19T03:36:04Z,42.805,6.029,13.2974,4.59976,2470.03,2020-8-19T05:36:54Z
2020-08-19T03:39:07Z,42.805,6.029,13.2974,4.59975,2470.04,2020-8-19T05:39:57Z
2020-08-19T03:42:11Z,42.805,6.029,13.2975,4.59976,2470.007,2020-8-19T05:43:00Z
2020-08-19T03:45:14Z,42.805,6.029,13.2971,4.59976,2470.04,2020-8-19T05:46:03Z
2020-08-19T03:48:17Z,42.805,6.029,13.2974,4.59976,2470.04,2020-8-19T05:49:07Z
2020-08-19T03:51:20Z,42.805,6.029,13.2974,4.59976,2470.017,2020-8-19T05:52:10Z
2020-08-19T03:54:24Z,42.805,6.029,13.2976,4.59976,2470.017,2020-8-19T05:55:13Z
2020-08-19T03:57:27Z,42.805,6.029,13.2975,4.59975,2470.053,2020-8-19T05:58:16Z
2020-08-19T04:00:30Z,42.805,6.029,13.2974,4.59976,2470.053,2020-8-19T06:01:20Z
2020-08-19T04:03:33Z,42.805,6.029,13.2979,4.59975,2470.053,2020-8-19T06:04:23Z
2020-08-19T04:06:36Z,42.805,6.029,13.2974,4.59976,2470.04,2020-8-19T06:07:26Z
2020-08-19T04:09:40Z,42.805,6.029,13.2973,4.59974,2470.077,2020-8-19T06:10:29Z
2020-08-19T04:12:43Z,42.805,6.029,13.2972,4.59975,2470.04,2020-8-19T06:13:32Z
2020-08-19T04:15:46Z,42.805,6.029,13.2970,4.59976,2470.03,2020-8-19T06:16:36Z
2020-08-19T04:18:49Z,42.805,6.029,13.2974,4.59976,2470.04,2020-8-19T06:19:39Z
2020-08-19T04:21:53Z,42.805,6.029,13.2976,4.59976,2470.04,2020-8-19T06:22:42Z
2020-08-19T04:24:56Z,42.805,6.029,13.2971,4.59975,2470.063,2020-8-19T06:25:45Z
2020-08-19T04:27:59Z,42.805,6.029,13.2971,4.59975,2470.063,2020-8-19T06:28:49Z
2020-08-19T04:31:02Z,42.805,6.029,13.2978,4.59976,2470.063,2020-8-19T06:31:52Z
2020-08-19T04:34:05Z,42.805,6.029,13.2973,4.59975,2470.077,2020-8-19T06:34:55Z
2020-08-19T04:37:09Z,42.805,6.029,13.2971,4.59978,2470.04,2020-8-19T06:37:58Z
2020-08-19T04:40:12Z,42.805,6.029,13.2976,4.59977,2470.087,2020-8-19T06:41:01Z
2020-08-19T04:43:15Z,42.805,6.029,13.2969,4.59975,2470.077,2020-8-19T06:44:05Z
2020-08-19T04:46:18Z,42.805,6.029,13.2971,4.59976,2470.1,2020-8-19T06:47:08Z
2020-08-19T04:49:22Z,42.805,6.029,13.2977,4.59976,2470.11,2020-8-19T06:50:11Z
2020-08-19T04:52:25Z,42.805,6.029,13.2975,4.59974,2470.087,2020-8-19T06:53:14Z
2020-08-19T04:55:28Z,42.805,6.029,13.2968,4.59976,2470.063,2020-8-19T06:56:18Z
2020-08-19T04:58:31Z,42.805,6.029,13.2972,4.59974,2470.063,2020-8-19T06:59:21Z
2020-08-19T05:01:35Z,42.805,6.029,13.2974,4.59976,2470.063,2020-8-19T07:02:24Z
2020-08-19T05:04:38Z,42.805,6.029,13.2973,4.59975,2470.087,2020-8-19T07:05:27Z
2020-08-19T05:07:41Z,42.805,6.029,13.2974,4.59974,2470.1,2020-8-19T07:08:31Z
2020-08-19T05:10:44Z,42.805,6.029,13.2974,4.59976,2470.077,2020-8-19T07:11:34Z
2020-08-19T05:13:48Z,42.805,6.029,13.2973,4.59975,2470.087,2020-8-19T07:14:37Z
2020-08-19T05:16:51Z,42.805,6.029,13.2975,4.59975,2470.11,2020-8-19T07:17:40Z
2020-08-19T05:19:54Z,42.805,6.029,13.2971,4.59975,2470.124,2020-8-19T07:20:44Z
2020-08-19T05:22:58Z,42.805,6.029,13.2975,4.59974,2470.124,2020-8-19T07:23:47Z
2020-08-19T05:26:01Z,42.805,6.029,13.2974,4.59974,2470.133,2020-8-19T07:26:50Z
2020-08-19T05:29:04Z,42.805,6.029,13.2974,4.59974,2470.124,2020-8-19T07:29:54Z
2020-08-19T05:32:07Z,42.805,6.029,13.2972,4.59975,2470.133,2020-8-19T07:32:57Z
2020-08-19T05:35:11Z,42.805,6.029,13.2974,4.59976,2470.087,2020-8-19T07:36:00Z
2020-08-19T05:38:14Z,42.805,6.029,13.2972,4.59976,2470.1,2020-8-19T07:39:04Z
2020-08-19T05:41:17Z,42.805,6.029,13.2977,4.59976,2470.147,2020-8-19T07:42:07Z
2020-08-19T05:44:21Z,42.805,6.029,13.2970,4.59975,2470.147,2020-8-19T07:45:10Z
2020-08-19T05:47:24Z,42.805,6.029,13.2971,4.59975,2470.124,2020-8-19T07:48:14Z
2020-08-19T05:50:28Z,42.805,6.029,13.2974,4.59975,2470.11,2020-8-19T07:51:17Z
2020-08-19T05:53:31Z,42.805,6.029,13.2973,4.59975,2470.124,2020-8-19T07:54:20Z
2020-08-19T05:56:34Z,42.805,6.029,13.2974,4.59975,2470.133,2020-8-19T07:57:24Z
2020-08-19T05:59:37Z,42.805,6.029,13.2974,4.59974,2470.11,2020-8-19T08:00:27Z
2020-08-19T06:02:41Z,42.805,6.029,13.2974,4.59975,2470.133,2020-8-19T08:03:30Z
2020-08-19T06:05:44Z,42.805,6.029,13.2976,4.59974,2470.133,2020-8-19T08:06:33Z
2020-08-19T06:08:47Z,42.805,6.029,13.2974,4.59976,2470.147,2020-8-19T08:09:37Z
2020-08-19T06:11:51Z,42.805,6.029,13.2973,4.59976,2470.147,2020-8-19T08:12:40Z
2020-08-19T06:14:54Z,42.805,6.029,13.2976,4.59978,2470.133,2020-8-19T08:15:43Z
2020-08-19T06:17:57Z,42.805,6.029,13.2972,4.59976,2470.133,2020-8-19T08:18:46Z
2020-08-19T06:21:00Z,42.805,6.029,13.2971,4.59976,2470.171,2020-8-19T08:21:50Z
2020-08-19T06:24:04Z,42.805,6.029,13.2976,4.59976,2470.171,2020-8-19T08:24:53Z
2020-08-19T06:27:07Z,42.805,6.029,13.2976,4.59976,2470.147,2020-8-19T08:27:56Z
2020-08-19T06:30:10Z,42.805,6.029,13.2974,4.59975,2470.147,2020-8-19T08:31:00Z
2020-08-19T06:33:14Z,42.805,6.029,13.2976,4.59975,2470.156,2020-8-19T08:34:03Z
2020-08-19T06:36:17Z,42.805,6.029,13.2971,4.59976,2470.171,2020-8-19T08:37:06Z
2020-08-19T06:39:20Z,42.805,6.029,13.2973,4.59974,2470.133,2020-8-19T08:40:09Z
2020-08-19T06:42:23Z,42.805,6.029,13.2969,4.59976,2470.156,2020-8-19T08:43:13Z
2020-08-19T06:45:26Z,42.805,6.029,13.2979,4.59976,2470.147,2020-8-19T08:46:16Z
2020-08-19T06:48:30Z,42.805,6.029,13.2974,4.59975,2470.147,2020-8-19T08:49:19Z
2020-08-19T06:51:33Z,42.805,6.029,13.2968,4.59976,2470.18,2020-8-19T08:52:22Z
2020-08-19T06:54:36Z,42.805,6.029,13.2970,4.59976,2470.156,2020-8-19T08:55:26Z
2020-08-19T06:57:39Z,42.805,6.029,13.2975,4.59975,2470.18,2020-8-19T08:58:29Z
2020-08-19T07:00:43Z,42.805,6.029,13.2976,4.59976,2470.156,2020-8-19T09:01:32Z
2020-08-19T07:03:46Z,42.805,6.029,13.2971,4.59975,2470.171,2020-8-19T09:04:35Z
2020-08-19T07:06:49Z,42.805,6.029,13.2974,4.59976,2470.156,2020-8-19T09:07:39Z
2020-08-19T07:09:53Z,42.805,6.029,13.2974,4.59976,2470.171,2020-8-19T09:10:42Z
2020-08-19T07:12:56Z,42.805,6.029,13.2974,4.59975,2470.124,2020-8-19T09:13:45Z
2020-08-19T07:15:59Z,42.805,6.029,13.2971,4.59976,2470.18,2020-8-19T09:16:49Z
2020-08-19T07:19:03Z,42.805,6.029,13.2973,4.59978,2470.18,2020-8-19T09:19:52Z
2020-08-19T07:22:06Z,42.805,6.029,13.2973,4.59976,2470.171,2020-8-19T09:22:55Z
2020-08-19T07:25:09Z,42.805,6.029,13.2976,4.59976,2470.156,2020-8-19T09:25:59Z
2020-08-19T07:28:12Z,42.805,6.029,13.2972,4.59975,2470.11,2020-8-19T09:29:02Z
2020-08-19T07:31:16Z,42.805,6.029,13.2973,4.59976,2470.133,2020-8-19T09:32:05Z
2020-08-19T07:34:19Z,42.805,6.029,13.2974,4.59976,2470.147,2020-8-19T09:35:08Z
2020-08-19T07:37:22Z,42.805,6.029,13.2974,4.59975,2470.133,2020-8-19T09:38:11Z
2020-08-19T07:40:25Z,42.805,6.029,13.2974,4.59976,2470.133,2020-8-19T09:41:15Z
2020-08-19T07:43:29Z,42.805,6.029,13.2971,4.59975,2470.133,2020-8-19T09:44:18Z
2020-08-19T07:46:32Z,42.805,6.029,13.2975,4.59976,2470.147,2020-8-19T09:47:21Z
2020-08-19T07:49:35Z,42.805,6.029,13.2971,4.59975,2470.133,2020-8-19T09:50:25Z
2020-08-19T07:52:38Z,42.805,6.029,13.2971,4.59976,2470.171,2020-8-19T09:53:28Z
2020-08-19T07:55:42Z,42.805,6.029,13.2973,4.59976,2470.171,2020-8-19T09:56:31Z
2020-08-19T07:58:45Z,42.805,6.029,13.2973,4.59974,2470.147,2020-8-19T09:59:34Z
2020-08-19T08:01:48Z,42.805,6.029,13.2971,4.59975,2470.147,2020-8-19T10:02:38Z
2020-08-19T08:04:52Z,42.805,6.029,13.2973,4.59976,2470.171,2020-8-19T10:05:41Z
2020-08-19T08:07:55Z,42.805,6.029,13.2973,4.59976,2470.156,2020-8-19T10:08:44Z
2020-08-19T08:10:58Z,42.805,6.029,13.2975,4.59975,2470.18,2020-8-19T10:11:48Z
2020-08-19T08:14:02Z,42.805,6.029,13.2973,4.59975,2470.156,2020-8-19T10:14:51Z
2020-08-19T08:17:05Z,42.805,6.029,13.2977,4.59975,2470.156,2020-8-19T10:17:54Z
2020-08-19T08:20:08Z,42.805,6.029,13.2973,4.59976,2470.156,2020-8-19T10:20:58Z
2020-08-19T08:23:12Z,42.805,6.029,13.2974,4.59978,2470.133,2020-8-19T10:24:01Z
2020-08-19T08:26:15Z,42.805,6.029,13.2971,4.59975,2470.147,2020-8-19T10:27:04Z
2020-08-19T08:29:18Z,42.805,6.029,13.2974,4.59975,2470.156,2020-8-19T10:30:08Z
2020-08-19T08:32:21Z,42.805,6.029,13.2974,4.59976,2470.133,2020-8-19T10:33:11Z
2020-08-19T08:35:25Z,42.805,6.029,13.2974,4.59976,2470.147,2020-8-19T10:36:14Z
2020-08-19T08:38:28Z,42.805,6.029,13.2975,4.59978,2470.133,2020-8-19T10:39:17Z
2020-08-19T08:41:31Z,42.805,6.029,13.2976,4.59976,2470.133,2020-8-19T10:42:20Z
2020-08-19T08:44:34Z,42.805,6.029,13.2974,4.59976,2470.133,2020-8-19T10:45:24Z
2020-08-19T08:47:38Z,42.805,6.029,13.2976,4.59976,2470.147,2020-8-19T10:48:27Z
2020-08-19T08:50:41Z,42.805,6.029,13.2974,4.59975,2470.11,2020-8-19T10:51:31Z
2020-08-19T08:53:44Z,42.805,6.029,13.2973,4.59976,2470.11,2020-8-19T10:54:34Z
2020-08-19T08:56:48Z,42.805,6.029,13.2971,4.59975,2470.11,2020-8-19T10:57:37Z
2020-08-19T08:59:51Z,42.805,6.029,13.2979,4.59976,2470.124,2020-8-19T11:00:40Z
2020-08-19T09:02:54Z,42.805,6.029,13.2970,4.59976,2470.147,2020-8-19T11:03:44Z
2020-08-19T09:05:57Z,42.805,6.029,13.2974,4.59975,2470.1,2020-8-19T11:06:47Z
2020-08-19T09:09:01Z,42.805,6.029,13.2974,4.59974,2470.1,2020-8-19T11:09:50Z
2020-08-19T09:12:04Z,42.805,6.029,13.2977,4.59975,2470.11,2020-8-19T11:12:53Z
2020-08-19T09:15:07Z,42.805,6.029,13.2971,4.59976,2470.087,2020-8-19T11:15:57Z
2020-08-19T09:18:10Z,42.805,6.029,13.2975,4.59975,2470.133,2020-8-19T11:19:00Z
2020-08-19T09:21:14Z,42.805,6.029,13.2973,4.59978,2470.087,2020-8-19T11:22:03Z
2020-08-19T09:24:17Z,42.805,6.029,13.2973,4.59976,2470.073,2020-8-19T11:25:07Z
2020-08-19T09:27:20Z,42.805,6.029,13.2972,4.59974,2470.11,2020-8-19T11:28:10Z
2020-08-19T09:30:24Z,42.805,6.029,13.2973,4.59975,2470.1,2020-8-19T11:31:13Z
2020-08-19T09:33:27Z,42.805,6.029,13.2975,4.59975,2470.063,2020-8-19T11:34:16Z
2020-08-19T09:36:30Z,42.805,6.029,13.2974,4.59974,2470.063,2020-8-19T11:37:20Z
2020-08-19T09:39:33Z,42.805,6.029,13.2974,4.59975,2470.053,2020-8-19T11:40:23Z
2020-08-19T09:42:37Z,42.805,6.029,13.2975,4.59974,2470.087,2020-8-19T11:43:26Z
2020-08-19T09:45:40Z,42.805,6.029,13.2974,4.59975,2470.087,2020-8-19T11:46:30Z
2020-08-19T09:48:44Z,42.805,6.029,13.2971,4.59974,2470.087,2020-8-19T11:49:33Z
2020-08-19T09:51:47Z,42.805,6.029,13.2973,4.59976,2470.063,2020-8-19T11:52:36Z
2020-08-19T09:54:50Z,42.805,6.029,13.2975,4.59976,2470.087,2020-8-19T11:55:39Z
2020-08-19T09:57:53Z,42.805,6.029,13.2974,4.59976,2470.077,2020-8-19T11:58:43Z
2020-08-19T10:00:57Z,42.805,6.029,13.2971,4.59975,2470.053,2020-8-19T12:01:46Z
2020-08-19T10:04:00Z,42.805,6.029,13.2974,4.59975,2470.063,2020-8-19T12:04:49Z
2020-08-19T10:07:03Z,42.805,6.029,13.2975,4.59974,2470.077,2020-8-19T12:07:53Z
2020-08-19T10:10:06Z,42.805,6.029,13.2975,4.59974,2470.063,2020-8-19T12:10:56Z
2020-08-19T10:13:10Z,42.805,6.029,13.2974,4.59976,2470.063,2020-8-19T12:13:59Z
2020-08-19T10:16:13Z,42.805,6.029,13.2972,4.59974,2470.053,2020-8-19T12:17:03Z
2020-08-19T10:19:16Z,42.805,6.029,13.2972,4.59975,2470.073,2020-8-19T12:20:06Z
2020-08-19T10:22:20Z,42.805,6.029,13.2974,4.59976,2470.053,2020-8-19T12:23:09Z
2020-08-19T10:25:23Z,42.805,6.029,13.2975,4.59975,2470.04,2020-8-19T12:26:12Z
2020-08-19T10:28:26Z,42.805,6.029,13.2973,4.59974,2470.077,2020-8-19T12:29:16Z
2020-08-19T10:31:29Z,42.805,6.029,13.2974,4.59975,2470.063,2020-8-19T12:32:19Z
2020-08-19T10:34:33Z,42.805,6.029,13.2974,4.59975,2470.063,2020-8-19T12:35:22Z
2020-08-19T10:37:36Z,42.805,6.029,13.2974,4.59975,2470.03,2020-8-19T12:38:25Z
2020-08-19T10:40:39Z,42.805,6.029,13.2973,4.59974,2470.04,2020-8-19T12:41:29Z
2020-08-19T10:43:42Z,42.805,6.029,13.2973,4.59974,2470.03,2020-8-19T12:44:32Z
2020-08-19T10:46:46Z,42.805,6.029,13.2976,4.59976,2470.04,2020-8-19T12:47:35Z
2020-08-19T10:49:49Z,42.805,6.029,13.2976,4.59975,2470.017,2020-8-19T12:50:38Z
2020-08-19T10:52:52Z,42.805,6.029,13.2978,4.59978,2470.03,2020-8-19T12:53:42Z
2020-08-19T10:55:55Z,42.805,6.029,13.2977,4.59976,2470.017,2020-8-19T12:56:45Z
2020-08-19T10:58:59Z,42.805,6.029,13.2975,4.59974,2470.017,2020-8-19T12:59:48Z
2020-08-19T11:02:02Z,42.805,6.029,13.2976,4.59977,2470.04,2020-8-19T13:02:51Z
2020-08-19T11:05:05Z,42.805,6.029,13.2974,4.59976,2470.017,2020-8-19T13:05:55Z
2020-08-19T11:08:08Z,42.805,6.029,13.2976,4.59974,2470.03,2020-8-19T13:08:58Z
2020-08-19T11:11:12Z,42.805,6.029,13.2973,4.59974,2470.04,2020-8-19T13:12:01Z
2020-08-19T11:14:15Z,42.805,6.029,13.2979,4.59974,2470.03,2020-8-19T13:15:04Z
2020-08-19T11:17:18Z,42.805,6.029,13.2972,4.59976,2470.03,2020-8-19T13:18:08Z
2020-08-19T11:20:21Z,42.805,6.029,13.2974,4.59975,2470.017,2020-8-19T13:21:11Z
2020-08-19T11:23:25Z,42.805,6.029,13.2975,4.59974,2470.053,2020-8-19T13:24:14Z
2020-08-19T11:26:28Z,42.805,6.029,13.2974,4.59974,2470.053,2020-8-19T13:27:17Z
2020-08-19T11:29:31Z,42.805,6.029,13.2973,4.59974,2470.003,2020-8-19T13:30:21Z
2020-08-19T11:32:34Z,42.805,6.029,13.2973,4.59974,2470.017,2020-8-19T13:33:24Z
2020-08-19T11:35:38Z,42.805,6.029,13.2973,4.59974,2470.03,2020-8-19T13:36:27Z
2020-08-19T11:38:41Z,42.805,6.029,13.2972,4.59975,2469.993,2020-8-19T13:39:30Z
2020-08-19T11:41:44Z,42.805,6.029,13.2971,4.59976,2469.97,2020-8-19T13:42:34Z
2020-08-19T11:44:47Z,42.805,6.029,13.2972,4.59976,2469.97,2020-8-19T13:45:37Z
2020-08-19T11:47:51Z,42.805,6.029,13.2974,4.59974,2470.017,2020-8-19T13:48:40Z
2020-08-19T11:50:54Z,42.805,6.029,13.2974,4.59973,2469.97,2020-8-19T13:51:43Z
2020-08-19T11:53:57Z,42.805,6.029,13.2973,4.59974,2469.97,2020-8-19T13:54:47Z
2020-08-19T11:57:00Z,42.805,6.029,13.2974,4.59973,2469.97,2020-8-19T13:57:50Z
2020-08-19T12:00:04Z,42.805,6.029,13.2976,4.59973,2469.984,2020-8-19T14:00:53Z
2020-08-19T12:03:07Z,42.805,6.029,13.2974,4.59973,2469.984,2020-8-19T14:03:57Z
2020-08-19T12:06:10Z,42.805,6.029,13.2971,4.59973,2469.993,2020-8-19T14:07:00Z
2020-08-19T12:09:14Z,42.805,6.029,13.2974,4.59974,2470.007,2020-8-19T14:10:03Z
2020-08-19T12:12:17Z,42.805,6.029,13.2974,4.59973,2469.984,2020-8-19T14:13:06Z
2020-08-19T12:15:20Z,42.805,6.029,13.2971,4.59974,2469.97,2020-8-19T14:16:10Z
2020-08-19T12:18:23Z,42.805,6.029,13.2975,4.59973,2469.947,2020-8-19T14:19:13Z
2020-08-19T12:21:27Z,42.805,6.029,13.2976,4.59974,2469.984,2020-8-19T14:22:16Z
2020-08-19T12:24:30Z,42.805,6.029,13.2974,4.59974,2469.97,2020-8-19T14:25:19Z
2020-08-19T12:27:33Z,42.805,6.029,13.2973,4.59973,2469.97,2020-8-19T14:28:23Z
2020-08-19T12:30:36Z,42.805,6.029,13.2975,4.59973,2469.97,2020-8-19T14:31:26Z
2020-08-19T12:33:40Z,42.805,6.029,13.2974,4.59975,2469.984,2020-8-19T14:34:29Z
2020-08-19T12:36:43Z,42.805,6.029,13.2973,4.59973,2469.96,2020-8-19T14:37:32Z
2020-08-19T12:39:46Z,42.805,6.029,13.2973,4.59973,2469.97,2020-8-19T14:40:36Z
2020-08-19T12:42:49Z,42.805,6.029,13.2971,4.59972,2469.96,2020-8-19T14:43:39Z
2020-08-19T12:45:52Z,42.805,6.029,13.2969,4.59973,2469.96,2020-8-19T14:46:42Z
2020-08-19T12:48:56Z,42.805,6.029,13.2971,4.59973,2469.947,2020-8-19T14:49:45Z
2020-08-19T12:51:59Z,42.805,6.029,13.2974,4.59973,2469.947,2020-8-19T14:52:48Z
2020-08-19T12:55:02Z,42.805,6.029,13.2971,4.59974,2469.947,2020-8-19T14:55:52Z
2020-08-19T12:58:05Z,42.805,6.029,13.2975,4.59974,2469.956,2020-8-19T14:58:55Z
2020-08-19T13:01:09Z,42.805,6.029,13.2973,4.59973,2469.984,2020-8-19T15:01:58Z
2020-08-19T13:04:12Z,42.805,6.029,13.2973,4.59973,2469.97,2020-8-19T15:05:01Z
2020-08-19T13:07:15Z,42.805,6.029,13.2971,4.59973,2469.993,2020-8-19T15:08:05Z
2020-08-19T13:10:18Z,42.805,6.029,13.2974,4.59974,2469.96,2020-8-19T15:11:08Z
2020-08-19T13:13:22Z,42.805,6.029,13.2972,4.59974,2469.96,2020-8-19T15:14:11Z
2020-08-19T13:16:25Z,42.805,6.029,13.2971,4.59973,2469.947,2020-8-19T15:17:14Z
2020-08-19T13:19:28Z,42.805,6.029,13.2973,4.59973,2469.97,2020-8-19T15:20:18Z
2020-08-19T13:22:31Z,42.805,6.029,13.2970,4.59973,2469.97,2020-8-19T15:23:21Z
2020-08-19T13:25:35Z,42.805,6.029,13.2976,4.59974,2469.97,2020-8-19T15:26:24Z
2020-08-19T13:28:38Z,42.805,6.029,13.2975,4.59973,2469.947,2020-8-19T15:29:28Z
2020-08-19T13:31:41Z,42.805,6.029,13.2976,4.59973,2469.984,2020-8-19T15:32:31Z
2020-08-19T13:34:45Z,42.805,6.029,13.2974,4.59973,2469.96,2020-8-19T15:35:34Z
2020-08-19T13:37:48Z,42.805,6.029,13.2974,4.59973,2469.97,2020-8-19T15:38:37Z
2020-08-19T13:40:51Z,42.805,6.029,13.2974,4.59976,2469.97,2020-8-19T15:41:41Z
2020-08-19T13:43:54Z,42.805,6.029,13.2973,4.59973,2469.97,2020-8-19T15:44:44Z
2020-08-19T13:46:58Z,42.805,6.029,13.2971,4.59973,2469.947,2020-8-19T15:47:47Z
2020-08-19T13:50:01Z,42.805,6.029,13.2975,4.59973,2469.984,2020-8-19T15:50:51Z
2020-08-19T13:53:04Z,42.805,6.029,13.2974,4.59974,2469.947,2020-8-19T15:53:54Z
2020-08-19T13:56:07Z,42.805,6.029,13.2968,4.59973,2469.96,2020-8-19T15:56:57Z
2020-08-19T13:59:11Z,42.805,6.029,13.2974,4.59974,2469.947,2020-8-19T16:00:00Z
2020-08-19T14:02:14Z,42.805,6.029,13.2974,4.59974,2469.97,2020-8-19T16:03:03Z
2020-08-19T14:05:17Z,42.805,6.029,13.2973,4.59974,2469.984,2020-8-19T16:06:07Z
2020-08-19T14:08:20Z,42.805,6.029,13.2974,4.59975,2469.984,2020-8-19T16:09:10Z
2020-08-19T14:11:24Z,42.805,6.029,13.2974,4.59973,2469.984,2020-8-19T16:12:13Z
2020-08-19T14:14:27Z,42.805,6.029,13.2973,4.59974,2469.937,2020-8-19T16:15:16Z
2020-08-19T14:17:30Z,42.805,6.029,13.2974,4.59974,2469.96,2020-8-19T16:18:20Z
2020-08-19T14:20:33Z,42.805,6.029,13.2975,4.59975,2469.97,2020-8-19T16:21:23Z
2020-08-19T14:23:37Z,42.805,6.029,13.2976,4.59973,2469.96,2020-8-19T16:24:26Z
2020-08-19T14:26:40Z,42.805,6.029,13.2971,4.59973,2469.937,2020-8-19T16:27:29Z
2020-08-19T14:29:43Z,42.805,6.029,13.2974,4.59975,2469.937,2020-8-19T16:30:33Z
2020-08-19T14:32:46Z,42.805,6.029,13.2973,4.59973,2469.923,2020-8-19T16:33:36Z
2020-08-19T14:35:50Z,42.805,6.029,13.2974,4.59974,2469.923,2020-8-19T16:36:39Z
2020-08-19T14:38:53Z,42.805,6.029,13.2974,4.59973,2469.97,2020-8-19T16:39:42Z
2020-08-19T14:41:56Z,42.805,6.029,13.2968,4.59973,2469.947,2020-8-19T16:42:46Z
2020-08-19T14:44:59Z,42.805,6.029,13.2972,4.59973,2469.947,2020-8-19T16:45:49Z
2020-08-19T14:48:03Z,42.805,6.029,13.2975,4.59973,2469.96,2020-8-19T16:48:52Z
2020-08-19T14:51:06Z,42.805,6.029,13.2974,4.59974,2469.97,2020-8-19T16:51:55Z
2020-08-19T14:54:09Z,42.805,6.029,13.2971,4.59973,2469.947,2020-8-19T16:54:59Z
2020-08-19T14:57:13Z,42.805,6.029,13.2977,4.59975,2469.984,2020-8-19T16:58:02Z
2020-08-19T15:00:16Z,42.805,6.029,13.2971,4.59973,2469.984,2020-8-19T17:01:05Z
2020-08-19T15:03:19Z,42.805,6.029,13.2971,4.59974,2469.947,2020-8-19T17:04:09Z
2020-08-19T15:06:23Z,42.805,6.029,13.2974,4.59973,2470.007,2020-8-19T17:07:12Z
2020-08-19T15:09:26Z,42.805,6.029,13.2971,4.59973,2469.97,2020-8-19T17:10:15Z
2020-08-19T15:12:29Z,42.805,6.029,13.2971,4.59973,2469.984,2020-8-19T17:13:18Z
2020-08-19T15:15:32Z,42.805,6.029,13.2974,4.59973,2469.96,2020-8-19T17:16:22Z